Southern Junior High School, Massachusetts, United States
Lat: 42.38N, Lon: 71.1W
Wx Zone: MAZ014
Local Info
Past Weather Observations for Today

NOTE: This archive is for the closest National Weather Service station to Southern Junior High School. Information may differ from the station used for current weather conditions.

Click here for Long-term Archive

Time Weather Temperature Dewpoint Humidity Pressure Winds Precip Visibility
22:54
Clear
73°F / 23°C 63°F / 17°C 69% 30.21 in
(1023 mb)
S 6.9 mph
(S 11 kph)
- 10SM
21:54
Mostly Cloudy
72°F / 22°C 63°F / 17°C 73% 30.21 in
(1023 mb)
S 5.8 mph
(S 9 kph)
- 10SM
20:54
Overcast
72°F / 22°C 63°F / 17°C 73% 30.21 in
(1023 mb)
S 5.8 mph
(S 9 kph)
- 10SM
19:54
Overcast
73°F / 23°C 64°F / 18°C 74% 30.21 in
(1023 mb)
SSE 10.4 mph
(SSE 17 kph)
- 10SM
18:54
Partly Cloudy
73°F / 23°C 64°F / 18°C 74% 30.21 in
(1023 mb)
SSE 9.2 mph
(SSE 15 kph)
- 10SM
16:54
Mostly Cloudy
79°F / 26°C 63°F / 17°C 58% 30.21 in
(1023 mb)
S 13.8 mph
(S 22 kph)
- 10SM
15:54
Mostly Cloudy
81°F / 27°C 64°F / 18°C 58% 30.18 in
(1022 mb)
SSE 17.3 mph
(SSE 28 kph)
- 10SM
14:54
Mostly Cloudy
Partly Cloudy
79°F / 26°C 64°F / 18°C 61% 30.18 in
(1022 mb)
SSE 12.7 mph
(SSE 20 kph)
- 10SM
13:54
Mostly Cloudy
Partly Cloudy
75°F / 24°C 66°F / 19°C 74% 30.18 in
(1022 mb)
E 12.7 mph
(E 20 kph)
- 10SM
12:54
Mostly Cloudy
Partly Cloudy
75°F / 24°C 66°F / 19°C 74% 30.21 in
(1023 mb)
E 11.5 mph
(E 19 kph)
- 10SM
11:54
Mostly Cloudy
Partly Cloudy
75°F / 24°C 66°F / 19°C 74% 30.21 in
(1023 mb)
E 15 mph
(E 24 kph)
- 10SM
10:54
Mostly Cloudy
73°F / 23°C 64°F / 18°C 74% 30.21 in
(1023 mb)
ESE 18.4 mph
(ESE 30 kph)
- 10SM
09:54
Mostly Cloudy
75°F / 24°C 66°F / 19°C 74% 30.21 in
(1023 mb)
ESE 8.1 mph
(ESE 13 kph)
- 8SM
08:54
Partly Cloudy
73°F / 23°C 66°F / 19°C 78% 30.21 in
(1023 mb)
SE 4.6 mph
(SE 7 kph)
- 10SM
07:54
Mostly Cloudy
73°F / 23°C 64°F / 18°C 74% 30.21 in
(1023 mb)
Calm - 10SM
06:54
Mostly Cloudy
70°F / 21°C 64°F / 18°C 83% 30.21 in
(1023 mb)
Variable 5.8 mph
(Variable 9 kph)
- 10SM
05:54
Partly Cloudy
66°F / 19°C 63°F / 17°C 88% 30.21 in
(1023 mb)
SW 4.6 mph
(SW 7 kph)
- 10SM
04:54
Partly Cloudy
66°F / 19°C 63°F / 17°C 88% 30.18 in
(1022 mb)
S 4.6 mph
(S 7 kph)
- 10SM
03:54
Partly Cloudy
66°F / 19°C 63°F / 17°C 88% 30.18 in
(1022 mb)
SW 6.9 mph
(SW 11 kph)
- 10SM
02:54
Partly Cloudy
66°F / 19°C 63°F / 17°C 88% 30.18 in
(1022 mb)
SW 6.9 mph
(SW 11 kph)
- 10SM
01:54
Partly Cloudy
68°F / 20°C 61°F / 16°C 78% 30.18 in
(1022 mb)
SW 8.1 mph
(SW 13 kph)
- 10SM
00:54
Clear
68°F / 20°C 61°F / 16°C 78% 30.15 in
(1021 mb)
SW 10.4 mph
(SW 17 kph)
- 10SM
Time Weather Temperature Dewpoint Humidity Pressure Winds Precip Visibility


Weather for websites

WeatherForYou.com, LLC is not responsible for any damages or problems caused by this service. Current weather conditions are obtained from the closest station including government and personal stations which may have varying degrees of accuracy. Weather forecasts are derived from the NOAA NDFD. Like all things, this site belongs to Jesus Christ... He just trusts me to maintain it. If you have any questions or comments email webmaster@weatherforyou.com

Copyright © 2014, WeatherForYou.com LLC. All rights reserved.